Location: Long Island Community Building
(39.9491°N, 99.5338°W)
Time: 12:56:40
(UTC+00:00)

Cosmos 1812 - Pass Details

Date: 06 December 2019
Orbit: 516 x 523 km, 82.5° (Epoch: 16 January)

Event Time Altitude Azimuth Distance (km) Brightness Sun altitude
Exits shadow 12:38:59 16° 259° (W) 1,439 4.4 -12.4°
Drops below altitude 10° 12:40:41 10° 234° (SW) 1,749 5.1 -12.1°
Sets 12:43:26 0° 212° (SSW) 2,629 6.2 -11.6°
